Starlink 5830

operational
NORAD ID: 57065 Int'l Des: 2023-088 Owner: SPXS Country: US Constellation: starlink
LEOCIRCULAR

关于 Starlink 5830

正在加载描述...

实时位置

正在加载3D地球...

即将过境

高度历史

Altitude vs Time

uPlot chart will show altitude changes over time

两行轨道根数

1 57065U 23088T 25260.23951100 -.00000188 00000-0 11299-5 0 9995
2 57065 43.0037 330.3391 0001181 270.8245 89.2462 15.02534099123299
Epoch: Sep 17, 2025 • Age: 17 hours

当前状态

高度 567.8 km
速度 7.58 km/s
星下点 -33.61°S, 61.73°W
发射日期 Jun 22, 2023
运行时间 2.2 years
类型 internet

技术详情

分类 Payload
质量 305.00 kg
干质量 290.00 kg
总质量 305.00 kg
长度 0.20 m
直径 2.80 m
跨度 9.00 m
形状 Box + pan
制造商 SPXS
平台类型 Starlink
阶段状态 In Orbit
所有者/国家 SPXS/US

大型星座

Loading constellations...